View from above orbital plane
|
View from above satellite
|
Ground track
|
The orbit data is extracted from the following two-line orbital elements,
1 43135U 18004AA 21020.19326314 .00001545 00000-0 63665-4 0 9998
2 43135 97.4265 96.3969 0009369 21.0087 339.1534 15.25585322168100
Epoch (UTC): | 20 January 2021 04:38:17 |
Eccentricity: | 0.0009369 |
inclination: | 97.4265° |
perigee height: | 482 km |
apogee height: | 495 km |
right ascension of ascending node: | 96.3969° |
argument of perigee: | 21.0087° |
revolutions per day: | 15.25585322 |
mean anomaly at epoch: | 339.1534° |
orbit number at epoch: | 16810 |
The dashed part of the orbit path shows where the satellite is in the earth's shadow,
|
|